Flag for Germany Weather past 2 weeks in Rastatt, Baden-Württemberg, Germany

41 °F


Feels Like: 32 °F
Forecast: 51 / 54 °F
Wind: 20 mph from Southwest

Location: Karlsruhe - Baden Wurttemberg

Current Time: Nov 29, 2015 at 1:35:01 AM

Latest Report: Nov 29, 2015 at 12:50 AM

Visibility: 10 mi

Pressure: 30.12 "Hg

Humidity: 70%

Dew point: 32 °F

Location of RastattLocation

Historic Weather in Rastatt — Graph


Rastatt temperature yesterday

Maximum temperature yesterday: 43 °F (at 1:50 PM)
Minimum temperature yesterday: 32 °F (at 12:20 AM)
Average temperature yesterday: 38 °F

Past Weeks' High & Low Weather Summary

High63 °F (Nov 18, 5:20 AM)100% (Nov 20, 8:20 AM)30.48 "Hg (Nov 20, 8:20 AM)
Low23 °F (Nov 24, 6:20 AM)44% (Nov 14, 1:50 PM)29.42 "Hg (Nov 21, 11:50 AM)
Average45 °F79%30.01 "Hg
* Reported Nov 13 11:20 PM — Nov 28 11:20 PM, Rastatt, Weather by CustomWeather, © 2015

Note: Actual official high and low records may vary slightly from our data, if they occured in-between our weather recording intervals... More about our weather records


Rastatt weather history for previous 24 hours

Time TempWeatherWind HumidityBarometerVisibility
11:20 PM
Sat, Nov 28
39 °FClear.17 mph81%30.15 "Hg10 mi
10:50 PM39 °FPartly cloudy.18 mph81%30.15 "HgN/A
10:20 PM39 °FPassing clouds.18 mph81%30.18 "HgN/A
9:50 PM39 °FClear.18 mph81%30.18 "Hg10 mi
9:20 PM39 °FClear.17 mph81%30.18 "Hg10 mi
8:50 PM39 °FClear.17 mph75%30.18 "Hg10 mi
8:20 PM39 °FClear.16 mph75%30.18 "Hg10 mi
7:50 PM39 °FClear.12 mph75%30.15 "Hg10 mi
7:20 PM37 °FPassing clouds.12 mph81%30.15 "HgN/A
6:50 PM39 °FPassing clouds.14 mph75%30.15 "HgN/A
6:20 PM39 °FPassing clouds.10 mph75%30.15 "HgN/A
5:50 PM39 °FPassing clouds.9 mph75%30.15 "HgN/A
5:20 PM37 °FPassing clouds.9 mph81%30.15 "HgN/A
4:50 PM39 °FPassing clouds.10 mph75%30.12 "HgN/A
4:20 PM41 °FScattered clouds.9 mph76%30.12 "HgN/A
3:50 PM43 °FScattered clouds.12 mph76%30.12 "HgN/A
3:20 PM43 °FScattered clouds.9 mph76%30.09 "HgN/A
2:50 PM43 °FPartly sunny.9 mph76%30.09 "HgN/A
2:20 PM43 °FPartly sunny.10 mph76%30.09 "HgN/A
1:50 PM43 °FPartly sunny.12 mph81%30.07 "HgN/A
1:20 PM41 °FPartly sunny.9 mph93%30.07 "HgN/A
12:50 PM39 °FPartly sunny.8 mph93%30.07 "HgN/A
12:20 PM39 °FPartly sunny.9 mph93%30.07 "Hg5 mi
11:50 AM39 °FPartly sunny.12 mph93%30.04 "Hg5 mi
11:20 AM39 °FPartly sunny.12 mph93%30.04 "Hg5 mi
10:50 AM37 °FSprinkles. Partly sunny.10 mph93%30.04 "Hg5 mi
10:20 AM37 °FSprinkles. Partly sunny.12 mph93%30.01 "Hg5 mi
9:50 AM36 °FSprinkles. Partly sunny.15 mph100%29.98 "Hg5 mi
9:20 AM36 °FPartly sunny.13 mph93%29.98 "Hg4 mi
8:50 AM36 °FDrizzle. Broken clouds.15 mph93%29.95 "Hg4 mi
8:20 AM34 °FSnow. Partly sunny.15 mph93%29.95 "Hg4 mi
7:50 AM34 °FSnow. Partly cloudy.15 mph93%29.92 "Hg4 mi
7:20 AM34 °FRain. Passing clouds.16 mph100%29.92 "Hg3 mi
6:50 AM34 °FLight rain. Passing clouds.16 mph93%29.89 "Hg4 mi
6:20 AM36 °FLight rain. Passing clouds.17 mph87%29.89 "Hg5 mi
5:50 AM36 °FLight snow. Partly cloudy.18 mph87%29.89 "Hg6 mi
4:50 AM34 °FPassing clouds.15 mph93%29.89 "HgN/A
Weather by CustomWeather, © 2015

See weather overviewHow to use our weather pages